When you browse on this site, cookies collect data to enhance your experience and personalize the content and advertising you see.
Visit our Privacy Policy to learn more. By continuing to use the site, you agree to this use of cookies and data.
  • In Lithuania
  • List of Countries
  • For 7 days
  • Water Temperature
  • Satellite Maps
  • Weather Map
  • Weather Widgets
  • user-avatar
    Login

    Hourly Weather Nizhnepodpolnyy

    Today, 21 June, Friday

    Time Temperature Precipitation Wind Pressure Humidity
    00:00 +25°C° 0 mm 5 mps 758 mmHg 52%
    01:00 +25°C° 0 mm 5 mps 758 mmHg 51%
    02:00 +25°C° 0 mm 5 mps 758 mmHg 50%
    03:00 +23°C° 0 mm 5 mps 759 mmHg 49%
    04:00 +23°C° 0 mm 5 mps 759 mmHg 51%
    05:00 +23°C° 0 mm 5 mps 759 mmHg 54%
    06:00 +23°C° 0 mm 5 mps 759 mmHg 56%
    07:00 +26°C° 0 mm 6 mps 759 mmHg 52%
    08:00 +27°C° 0 mm 6 mps 759 mmHg 47%
    09:00 +29°C° 0 mm 6 mps 760 mmHg 43%
    10:00 +32°C° 0 mm 6 mps 760 mmHg 40%
    11:00 +33°C° 0 mm 7 mps 760 mmHg 37%
    12:00 +35°C° 0 mm 7 mps 760 mmHg 34%
    13:00 +35°C° 0 mm 7 mps 760 mmHg 33%
    14:00 +35°C° 0 mm 7 mps 760 mmHg 32%
    15:00 +36°C° 0 mm 7 mps 759 mmHg 32%
    16:00 +35°C° 0 mm 6 mps 759 mmHg 34%
    17:00 +34°C° 0 mm 5 mps 759 mmHg 37%
    18:00 +33°C° 0 mm 4 mps 759 mmHg 39%
    19:00 +30°C° 0 mm 4 mps 760 mmHg 43%
    20:00 +29°C° 0 mm 4 mps 760 mmHg 47%
    21:00 +27°C° 0 mm 4 mps 760 mmHg 50%
    22:00 +26°C° 0 mm 4 mps 760 mmHg 50%
    23:00 +26°C° 0 mm 4 mps 761 mmHg 50%

    Tomorrow, 22 June, Saturday

    Time Temperature Precipitation Wind Pressure Humidity
    00:00 +25°C° 0 mm 5 mps 761 mmHg 49%
    01:00 +25°C° 0 mm 4 mps 761 mmHg 51%
    02:00 +23°C° 0 mm 4 mps 761 mmHg 53%
    03:00 +22°C° 0 mm 4 mps 761 mmHg 56%
    04:00 +22°C° 0 mm 4 mps 761 mmHg 56%
    05:00 +23°C° 0 mm 4 mps 761 mmHg 57%
    06:00 +23°C° 0 mm 4 mps 761 mmHg 58%
    07:00 +26°C° 0 mm 4 mps 761 mmHg 52%
    08:00 +28°C° 0 mm 5 mps 761 mmHg 47%
    09:00 +30°C° 0 mm 6 mps 761 mmHg 41%
    10:00 +32°C° 0 mm 6 mps 761 mmHg 37%
    11:00 +34°C° 0 mm 6 mps 761 mmHg 34%
    12:00 +35°C° 0 mm 6 mps 761 mmHg 31%
    13:00 +35°C° 0 mm 6 mps 760 mmHg 30%
    14:00 +35°C° 0 mm 6 mps 760 mmHg 29%
    15:00 +36°C° 0 mm 6 mps 760 mmHg 28%
    16:00 +35°C° 0 mm 6 mps 760 mmHg 31%
    17:00 +35°C° 0 mm 5 mps 759 mmHg 33%
    18:00 +34°C° 0 mm 5 mps 759 mmHg 36%
    19:00 +33°C° 0 mm 5 mps 759 mmHg 38%
    20:00 +30°C° 0 mm 5 mps 760 mmHg 39%
    21:00 +29°C° 0 mm 5 mps 760 mmHg 41%
    22:00 +29°C° 0 mm 6 mps 760 mmHg 40%
    23:00 +29°C° 0 mm 6 mps 759 mmHg 40%

    Day after tomorrow, 23 June, Sunday

    Time Temperature Precipitation Wind Pressure Humidity
    00:00 +29°C° 0 mm 6 mps 759 mmHg 39%
    01:00 +29°C° 0 mm 6 mps 759 mmHg 39%
    02:00 +28°C° 0 mm 6 mps 759 mmHg 39%
    03:00 +28°C° 0 mm 6 mps 759 mmHg 39%
    04:00 +28°C° 0 mm 6 mps 760 mmHg 39%
    05:00 +27°C° 0 mm 5 mps 760 mmHg 39%
    06:00 +27°C° 0 mm 5 mps 760 mmHg 39%
    07:00 +27°C° 0 mm 5 mps 760 mmHg 38%
    08:00 +28°C° 0 mm 5 mps 760 mmHg 38%
    09:00 +28°C° 0 mm 5 mps 760 mmHg 38%
    10:00 +29°C° 0 mm 5 mps 760 mmHg 38%
    11:00 +30°C° 0 mm 4 mps 760 mmHg 38%
    12:00 +32°C° 0 mm 4 mps 760 mmHg 38%
    13:00 +33°C° 0 mm 4 mps 760 mmHg 35%
    14:00 +35°C° 0 mm 5 mps 760 mmHg 32%
    15:00 +36°C° 0 mm 5 mps 760 mmHg 29%
    16:00 +36°C° 0 mm 5 mps 760 mmHg 30%
    17:00 +36°C° 0 mm 5 mps 759 mmHg 31%
    18:00 +35°C° 0 mm 5 mps 759 mmHg 32%
    19:00 +34°C° 0 mm 5 mps 759 mmHg 35%
    20:00 +32°C° 0 mm 5 mps 759 mmHg 37%
    21:00 +29°C° 0 mm 5 mps 759 mmHg 40%
    22:00 +29°C° 0 mm 5 mps 759 mmHg 40%
    23:00 +29°C° 0 mm 5 mps 759 mmHg 39%

    24 June, Monday

    Time Temperature Precipitation Wind Pressure Humidity
    00:00 +29°C° 0 mm 5 mps 759 mmHg 39%
    01:00 +28°C° 0 mm 5 mps 759 mmHg 39%
    02:00 +28°C° 0 mm 5 mps 759 mmHg 39%
    03:00 +27°C° 0 mm 4 mps 759 mmHg 39%
    04:00 +27°C° 0 mm 4 mps 759 mmHg 42%
    05:00 +26°C° 0 mm 4 mps 759 mmHg 45%
    06:00 +26°C° 0 mm 4 mps 759 mmHg 48%
    07:00 +28°C° 0 mm 5 mps 759 mmHg 44%
    08:00 +30°C° 0 mm 6 mps 759 mmHg 40%
    09:00 +33°C° 0 mm 7 mps 759 mmHg 37%
    10:00 +34°C° 0 mm 7 mps 759 mmHg 35%
    11:00 +35°C° 0 mm 7 mps 759 mmHg 33%
    12:00 +38°C° 0 mm 7 mps 759 mmHg 31%
    13:00 +38°C° 0 mm 7 mps 759 mmHg 30%
    14:00 +38°C° 0 mm 7 mps 759 mmHg 30%
    15:00 +38°C° 0 mm 7 mps 759 mmHg 30%
    16:00 +36°C° 0 mm 7 mps 759 mmHg 33%
    17:00 +35°C° 0 mm 6 mps 759 mmHg 35%
    18:00 +35°C° 0 mm 6 mps 759 mmHg 38%
    19:00 +33°C° 0 mm 6 mps 759 mmHg 43%
    20:00 +30°C° 0 mm 6 mps 760 mmHg 48%
    21:00 +28°C° 0 mm 6 mps 760 mmHg 52%
    22:00 +28°C° 0 mm 5 mps 760 mmHg 53%
    23:00 +27°C° 0 mm 5 mps 760 mmHg 55%

    25 June, Tuesday

    Time Temperature Precipitation Wind Pressure Humidity
    00:00 +26°C° 0 mm 4 mps 760 mmHg 56%
    01:00 +26°C° 0 mm 4 mps 760 mmHg 57%
    02:00 +25°C° 0 mm 4 mps 760 mmHg 57%
    03:00 +25°C° 0 mm 4 mps 760 mmHg 58%
    04:00 +25°C° 0 mm 4 mps 761 mmHg 60%
    05:00 +25°C° 0 mm 4 mps 761 mmHg 62%
    06:00 +25°C° 0 mm 4 mps 761 mmHg 64%
    07:00 +27°C° 0 mm 5 mps 761 mmHg 60%
    08:00 +29°C° 0 mm 5 mps 761 mmHg 56%
    09:00 +30°C° 0 mm 6 mps 761 mmHg 52%
    10:00 +32°C° 0 mm 6 mps 761 mmHg 49%
    11:00 +34°C° 0 mm 6 mps 761 mmHg 46%
    12:00 +35°C° 0 mm 6 mps 762 mmHg 42%
    13:00 +35°C° 0 mm 6 mps 761 mmHg 41%
    14:00 +36°C° 0 mm 6 mps 761 mmHg 40%
    15:00 +36°C° 0 mm 7 mps 761 mmHg 39%
    16:00 +35°C° 0 mm 7 mps 761 mmHg 41%
    17:00 +34°C° 0 mm 7 mps 761 mmHg 43%
    18:00 +33°C° 0 mm 7 mps 761 mmHg 44%
    19:00 +30°C° 0 mm 7 mps 762 mmHg 45%
    20:00 +28°C° 0 mm 7 mps 762 mmHg 46%
    21:00 +26°C° 0 mm 6 mps 762 mmHg 47%
    22:00 +26°C° 0 mm 6 mps 763 mmHg 48%
    23:00 +24°C° 0 mm 6 mps 763 mmHg 48%

    26 June, Wednesday

    Time Temperature Precipitation Wind Pressure Humidity
    00:00 +23°C° 0 mm 6 mps 763 mmHg 49%
    01:00 +22°C° 0 mm 5 mps 763 mmHg 51%
    02:00 +21°C° 0 mm 5 mps 762 mmHg 54%
    03:00 +20°C° 0 mm 5 mps 762 mmHg 57%
    04:00 +20°C° 0 mm 5 mps 762 mmHg 59%
    05:00 +20°C° 0 mm 5 mps 762 mmHg 61%
    06:00 +20°C° 0 mm 5 mps 762 mmHg 63%
    07:00 +21°C° 0 mm 5 mps 762 mmHg 58%
    08:00 +23°C° 0 mm 5 mps 762 mmHg 53%
    09:00 +26°C° 0 mm 5 mps 762 mmHg 48%
    10:00 +27°C° 0 mm 4 mps 761 mmHg 43%
    11:00 +29°C° 0 mm 4 mps 761 mmHg 38%
    12:00 +30°C° 0 mm 4 mps 761 mmHg 32%
    13:00 +31°C° 0 mm 3 mps 760 mmHg 30%
    14:00 +31°C° 0 mm 3 mps 760 mmHg 28%
    15:00 +33°C° 0 mm 3 mps 759 mmHg 25%
    16:00 +31°C° 0 mm 3 mps 759 mmHg 26%
    17:00 +31°C° 0 mm 3 mps 759 mmHg 27%
    18:00 +31°C° 0 mm 3 mps 758 mmHg 28%
    19:00 +29°C° 0 mm 3 mps 758 mmHg 33%
    20:00 +26°C° 0 mm 3 mps 758 mmHg 38%
    21:00 +23°C° 0 mm 4 mps 758 mmHg 44%
    22:00 +22°C° 0 mm 4 mps 758 mmHg 47%
    23:00 +21°C° 0 mm 4 mps 758 mmHg 51%
    Show more